Regional Weather Roundup
Issued by NWS Newport/Morehead, NC

Current Version | Previous Version | Text Only | Print | Product List | Glossary On
Versions: 1 2 3 4 5 6 7 8 9 10 11 12 13 14 15 16 17 18 19 20 21 22 23 24 25 26 27 28 29 30 31 32 33 34 35 36 37 38 39 40 41 42 43 44 45 46 47 48 49 50
000 ASUS42 KMHX 240725 RWRMHX WEATHER ROUNDUP FOR EASTERN NORTH CAROLINA NATIONAL WEATHER SERVICE NEWPORT/MOREHEAD CITY NC 200 AM EST FRI NOV 24 2017 NOTE: "FAIR" INDICATES FEW OR NO CLOUDS BELOW 12,000 FEET WITH NO SIGNIFICANT WEATHER AND/OR OBSTRUCTIONS TO VISIBILITY NCZ015>017-031-032-045>047-102-103-240800- NORTH COAST CITY SKY/WX TMP DP RH WIND PRES REMARKS EDENTON CLEAR 33 32 96 CALM 30.08S ELIZABETH CITY CLEAR 35 32 88 N5 30.08F KITTY HAWK MOSUNNY 41 35 79 CALM 30.05S MANTEO PTCLDY 42 37 80 N6 30.06F $$ NCZ045>047-081-094-103-104-240800- CENTRAL COAST CITY SKY/WX TMP DP RH WIND PRES REMARKS FRISCO CLOUDY 51 42 71 NE8 30.03S $$ NCZ095-097-098-100-101-240800- SOUTHERN COAST CITY SKY/WX TMP DP RH WIND PRES REMARKS BEAUFORT MOCLDY 48 41 76 NE12G18 30.02F CEDAR ISLAND NOT AVBL JACKSONVILLE NOT AVBL PINEY ISLAND NOT AVBL WILMINGTON CLOUDY 45 41 86 N9 30.03R $$ NCZ011>013-027>030-043-044-078>080-089-090>093-098-240800- COASTAL PLAIN CITY SKY/WX TMP DP RH WIND PRES REMARKS AHOSKIE CLEAR 28 28 99 CALM 30.09S CLINTON CLEAR 35 35 99 CALM 30.06S ELIZABETHTOWN NOT AVBL GOLDSBORO CLEAR 37 34 89 CALM 30.04S GREENVILLE CLEAR 28 28 100 CALM 30.08S HAVELOCK NOT AVBL KENANSVILLE CLEAR 34 32 93 N5 30.05S KINSTON CLEAR 33 32 96 N3 30.07R NEW BERN PTCLDY 39 38 96 NE5 30.05F RICHLANDS CLEAR 38 36 92 NE5 30.04F ROCKY MOUNT CLEAR 29 29 100 N3 30.07F WASHINGTON CLOUDY 35 33 93 N3 30.07S WHITEVILLE CLEAR 39 37 91 CALM 30.03S $$ AMZ130-135-150-152-154-156-158-170-250-252-270-ANZ085-086-088-633-658-670-240800- MARINE OBSERVATIONS STATION/POSITION TIME TEMP WIND PRES WAVE SWELL AIR SEA DIR/SP/G HT/PER HT/PER (UTC) (F) (DEG/KT/KT) (MB) (FT/S) (FT/S) CHESAPEAKE LIGHT NOT AVBL 64 E VA BEACH 0650 48 59 350/ 8/ 12 1018.3 5/ 9 5/ 9 DUCK 0700 45 57 320/ 11/ 12 1017.5 2 E DUCK 0700 60 N/A 4/ 9 2/11 OREGON INLET 0700 48 58 10/ 8/ 10 1017.4 13E OREGON INLT 0648 62 N/A 5/ 9 5/ 9 HATTERAS CG 0700 51 58 20/ 15/ 17 1016.5 DIAMOND BUOY 0710 57 72 20/ 16/ 19 1016.3 CAPE LOOKOUT 0700 10/ 13/ 16 1016.4 BEAUFORT LAB 0700 48 59 10/ 10/ 12 1016.7 30 SE NEW RVR IN 0708 56 67 50/ 17/ 21 1015.5 30 SE NEW RVR IN 0700 67 N/A 6/ 9 2/11 27 SE WRIGHTSVLE 0708 58 72 40/ 17/ 27 1015.1 5 SE WRIGHTSVLE 0708 51 63 20/ 14/ 17 1015.9 225 S CAPE HAT 0650 69 76 50/ 17/ 21 1011.0 9/ 8 5/13 41 SE CHARLESTON 0710 66 75 20/ 21/ 27 1012.4 $$

USA.gov is the U.S. government's official web portal to all federal, state and local government web resources and services.